West Memphis, AR

8:46 AM CDT on May 30, 2017 (GMT -0500)
West Memphis Municipal

Weather History for KAWM - February, 2014

Change the Weather History Date:

Sunday, February 9, 2014

  Actual Average Record
Temperature  
Mean Temperature 34 °F -  
Max Temperature 36 °F 48 °F 72 °F (2009)
Min Temperature 32 °F 28 °F 6 °F (1971)
Degree Days  
Heating Degree Days 31    
Moisture  
Dew Point 31 °F    
Average Humidity 91    
Maximum Humidity 100    
Minimum Humidity 81    
Precipitation  
Precipitation 0.00 in - - ()
Sea Level Pressure  
Sea Level Pressure 30.18 in    
Wind  
Wind Speed 3 mph (North)    
Max Wind Speed 15 mph    
Max Gust Speed -    
Visibility 6 miles    
Events      
Averages and records for this station are not official NWS values.
T = Trace of Precipitation, MM = Missing Value Source: NWS Daily Summary

Daily Weather History Graph

Daily Weather History Graph

Search for Another Location

Airport or City:

Trip Planner

Search our weather history database for the weather conditions in past years. The results will help you decide how hot, cold, wet, or windy it might be!

Date:

Astronomy

Feb. 09, 2014 Rise Set
Actual Time 6:53 AM CST 5:37 PM CST
Civil Twilight 6:26 AM CST 6:03 PM CST
Nautical Twilight 5:56 AM CST 6:33 PM CST
Astronomical Twilight 5:27 AM CST 7:03 PM CST
Moon 1:21 PM CST (2/9) 2:54 AM CST (2/9)
Length of Visible Light 11h 36m
Length of Day
10h 44m
Waxing Gibbous, 77% of the Moon is Illuminated
Feb 9
Waxing Gibbous
Feb 14
Full
Feb 22
Last Quarter
Mar 1
New
Mar 8
First Quarter

Hourly Weather History & Observations

Time (CST) Temp. Windchill Dew Point Humidity Pressure Visibility Wind Dir Wind Speed Gust Speed Precip Events Conditions
12:45 AM 33.8 °F - 32.0 °F 93% 30.17 in 4.0 mi Calm Calm - N/A   Overcast
12:53 AM 33.1 °F - 32.0 °F 96% 30.18 in 4.0 mi Calm Calm - N/A   Overcast
1:11 AM 33.8 °F - 32.0 °F 93% 30.17 in 4.0 mi Calm Calm - N/A   Overcast
1:20 AM 33.8 °F - 32.0 °F 93% 30.17 in 4.0 mi Calm Calm - N/A   Overcast
1:53 AM 32.0 °F - 32.0 °F 100% 30.16 in 3.0 mi Calm Calm - N/A   Overcast
2:50 AM 33.8 °F - 32.0 °F 93% 30.15 in 4.0 mi Calm Calm - N/A   Overcast
2:53 AM 33.1 °F - 32.0 °F 96% 30.15 in 4.0 mi Calm Calm - N/A   Overcast
3:17 AM 32.0 °F - 30.2 °F 93% 30.14 in 3.0 mi Calm Calm - N/A   Overcast
3:53 AM 32.0 °F - 32.0 °F 100% 30.16 in 3.0 mi Calm Calm - N/A   Overcast
4:01 AM 32.0 °F - 32.0 °F 100% 30.15 in 2.5 mi Calm Calm - N/A   Overcast
4:43 AM 32.0 °F - 32.0 °F 100% 30.15 in 2.0 mi Calm Calm - N/A   Overcast
4:53 AM 32.0 °F 27.5 °F 32.0 °F 100% 30.18 in 2.0 mi NW 4.6 mph - N/A   Overcast
5:13 AM 32.0 °F 28.7 °F 32.0 °F 100% 30.17 in 1.8 mi NNW 3.5 mph - N/A   Overcast
5:19 AM 32.0 °F - 32.0 °F 100% 30.17 in 2.0 mi Calm Calm - N/A   Overcast
5:28 AM 32.0 °F - 32.0 °F 100% 30.17 in 2.0 mi Calm Calm - N/A   Overcast
5:34 AM 32.0 °F 28.7 °F 32.0 °F 100% 30.17 in 1.8 mi NNW 3.5 mph - N/A   Overcast
5:41 AM 32.0 °F - 32.0 °F 100% 30.17 in 2.0 mi Calm Calm - N/A   Overcast
5:53 AM 32.0 °F - 32.0 °F 100% 30.18 in 2.5 mi Calm Calm - N/A   Overcast
6:17 AM 32.0 °F - 32.0 °F 100% 30.17 in 3.0 mi Calm Calm - N/A   Overcast
6:53 AM 32.0 °F - 32.0 °F 100% 30.19 in 2.5 mi Calm Calm - N/A   Overcast
7:00 AM 32.0 °F - 32.0 °F 100% 30.19 in 3.0 mi Calm Calm - N/A   Overcast
7:13 AM 32.0 °F - 32.0 °F 100% 30.18 in 2.0 mi Calm Calm - N/A   Overcast
7:48 AM 33.8 °F - 33.8 °F 100% 30.17 in 3.0 mi Calm Calm - N/A   Overcast
7:53 AM 33.1 °F - 33.1 °F 100% 30.18 in 3.0 mi Calm Calm - N/A   Overcast
8:23 AM 33.8 °F 26.4 °F 32.0 °F 93% 30.18 in 5.0 mi North 9.2 mph - N/A   Overcast
8:53 AM 33.1 °F 26.1 °F 32.0 °F 96% 30.20 in 6.0 mi North 8.1 mph - N/A   Overcast
9:21 AM 33.8 °F 29.6 °F 32.0 °F 93% 30.22 in 7.0 mi North 4.6 mph - N/A   Overcast
9:53 AM 35.1 °F 31.0 °F 32.0 °F 89% 30.22 in 10.0 mi North 4.6 mph - N/A   Overcast
10:53 AM 36.0 °F 32.1 °F 30.9 °F 82% 30.22 in 10.0 mi Variable 4.6 mph - N/A   Overcast
11:53 AM 35.1 °F 27.9 °F 30.9 °F 85% 30.17 in 10.0 mi NE 9.2 mph - N/A   Overcast
12:00 PM 35.6 °F 29.2 °F 30.2 °F 81% 30.16 in 10.0 mi NE 8.1 mph - N/A   Overcast
12:29 PM 35.6 °F 29.9 °F 30.2 °F 81% 30.18 in 10.0 mi NNE 6.9 mph - N/A   Overcast
12:53 PM 35.1 °F 28.6 °F 30.9 °F 85% 30.19 in 10.0 mi North 8.1 mph - N/A   Overcast
1:46 PM 33.8 °F 28.6 °F 30.2 °F 87% 30.19 in 10.0 mi NNW 5.8 mph - N/A   Overcast
1:53 PM 35.1 °F 27.9 °F 30.9 °F 85% 30.19 in 10.0 mi North 9.2 mph - N/A   Overcast
2:11 PM 35.6 °F 30.7 °F 30.2 °F 81% 30.19 in 10.0 mi NNW 5.8 mph - N/A   Overcast
2:53 PM 35.1 °F 27.4 °F 30.9 °F 85% 30.17 in 10.0 mi NNE 10.4 mph - N/A   Overcast
3:06 PM 35.6 °F 29.2 °F 30.2 °F 81% 30.17 in 10.0 mi North 8.1 mph - N/A   Overcast
3:38 PM 35.6 °F 27.5 °F 30.2 °F 81% 30.16 in 10.0 mi NNE 11.5 mph - N/A   Overcast
3:53 PM 36.0 °F 28.5 °F 30.9 °F 82% 30.18 in 10.0 mi NNE 10.4 mph - N/A   Overcast
4:15 PM 35.6 °F 28.0 °F 30.2 °F 81% 30.17 in 10.0 mi NNE 10.4 mph - N/A   Overcast
4:27 PM 35.6 °F 29.2 °F 30.2 °F 81% 30.16 in 10.0 mi NE 8.1 mph - N/A   Overcast
4:53 PM 34.0 °F 26.6 °F 30.0 °F 85% 30.18 in 10.0 mi NE 9.2 mph - N/A   Overcast
5:15 PM 33.8 °F 27.0 °F 30.2 °F 87% 30.19 in 10.0 mi NNE 8.1 mph - N/A   Overcast
5:27 PM 33.8 °F 27.0 °F 30.2 °F 87% 30.19 in 10.0 mi NNE 8.1 mph - N/A   Overcast
5:53 PM 33.1 °F 26.9 °F 30.0 °F 89% 30.21 in 10.0 mi North 6.9 mph - N/A   Overcast
6:28 PM 33.8 °F 27.7 °F 30.2 °F 87% 30.19 in 9.0 mi NNE 6.9 mph - N/A   Overcast
6:44 PM 33.8 °F 27.0 °F 30.2 °F 87% 30.19 in 9.0 mi NNE 8.1 mph - N/A   Overcast
6:53 PM 33.1 °F 24.9 °F 30.0 °F 89% 30.21 in 9.0 mi NNE 10.4 mph - N/A   Overcast
7:17 PM 33.8 °F 25.3 °F 30.2 °F 87% 30.20 in 8.0 mi NNE 11.5 mph - N/A   Overcast
7:53 PM 32.0 °F 24.2 °F 30.0 °F 92% 30.22 in 8.0 mi NNE 9.2 mph - N/A   Overcast
8:53 PM 33.1 °F 26.1 °F 30.0 °F 89% 30.22 in 8.0 mi NE 8.1 mph - N/A   Overcast
9:53 PM 32.0 °F 23.0 °F 30.0 °F 92% 30.24 in 8.0 mi North 11.5 mph - N/A   Overcast
10:49 PM 32.0 °F 21.6 °F 28.4 °F 87% 30.22 in 9.0 mi North 15.0 mph - N/A   Overcast
10:53 PM 32.0 °F 22.5 °F 28.9 °F 88% 30.24 in 9.0 mi NNE 12.7 mph - N/A   Overcast
11:53 PM 32.0 °F 21.6 °F 28.0 °F 85% 30.22 in 9.0 mi NNE 15.0 mph - N/A   Overcast